Content
SEND FEEDBACK

Daily
Averages
Monthly
Summary
United States of America

WILMINGTON, NORTH CAROLINA


Home > North America > United States > North Carolina
Elevation: 72 feet     Latitude: 34 16N     Longitude: 077 54W

WEATHER
 
SELECT A DAY
Number of Records: 212,380;   Date Range: 1/1/95 - 10/24/14
 
SHARE

PRINT THIS DATA

[ ← Previous Day ]
WEATHER ALMANAC - FEBRUARY 19, 2013
[ Next Day → ]
[ °C ]   °F
Weather ElementAverageHighLow
Temperature51 °F63 °F (10:53 am)32 °F (1:53 am)
Dewpoint44.8 °F53.6 °F (6:29 pm)28.9 °F (1:53 am)
Humidity79.9 %92 % (4:53 am)60 % (10:53 am)
Barometer30.06 in30.26 in (1:53 am)29.95 in (4:53 pm)
Wind Speed9 mph20.7 mph (4:53 pm)
Wind Gust29.9 mph (5:29 pm)
Weather ElementAverage
Visibility9.6 mi
Wind DirectionSSE (159.6 °)

Weather ElementTotal
Precipitation---
Heating Degree Days17.5 (Base 65)
Averaged from 24 records on February 19, 2013
WEATHER CONDITIONS BREAKOUT
WIND DIRECTION BREAKOUT
WEATHER BY HOUR - FEBRUARY 19, 2013
[ °C ]   °F
Local TimeTemperatureDewpointHumidityBarometerVisibilityWind DirectionWind SpeedGust SpeedPrecipitationEventsConditions
1:53 AM32.0 °F28.9 °F88 %30.26 in9.0 miESE (110°)3.5 mphClear
2:53 AM35.1 °F30.0 °F82 %30.25 in10.0 miCalmClear
3:53 AM34.0 °F30.9 °F89 %30.21 in10.0 miCalmClear
4:53 AM34.0 °F32.0 °F92 %30.19 in10.0 miCalmPartly Cloudy
5:53 AM36.0 °F33.1 °F89 %30.17 in10.0 miESE (120°)4.6 mphClear
6:53 AM39.0 °F36.0 °F89 %30.16 in10.0 miCalmClear
7:53 AM43.0 °F39.9 °F89 %30.16 in10.0 miCalmScattered Clouds
8:53 AM54.0 °F48.0 °F80 %30.16 in10.0 miCalmClear
9:53 AM60.1 °F50.0 °F69 %30.14 in10.0 miSSW (200°)8.1 mphScattered Clouds
10:53 AM63.0 °F48.9 °F60 %30.11 in10.0 miSouth (190°)8.1 mphClear
11:53 AM60.8 °F51.8 °F72 %30.08 in7.0 miSSW (200°)11.5 mph19.6 mphRainLight Rain
1:53 PM60.8 °F50.0 °F68 %30.00 in10.0 miSSW (200°)10.4 mphRainLight Rain
2:53 PM60.1 °F50.0 °F69 %29.98 in10.0 miSSW (210°)11.5 mph0.00 inOvercast
3:53 PM60.1 °F48.9 °F67 %29.96 in10.0 miSW (220°)12.7 mph0.00 inRainLight Rain
4:53 PM60.1 °F48.9 °F67 %29.95 in10.0 miSW (230°)20.7 mph28.8 mph0.00 inOvercast
5:29 PM55.4 °F50.0 °F82 %29.95 in5.0 miSW (220°)16.1 mph29.9 mph0.00 inRainLight Rain
5:53 PM55.9 °F52.0 °F87 %29.95 in10.0 miSSW (210°)13.8 mph21.9 mph0.00 inOvercast
6:29 PM57.2 °F53.6 °F88 %29.95 in10.0 miSW (220°)17.3 mph28.8 mphOvercast
7:53 PM57.9 °F53.1 °F84 %29.95 in10.0 miWSW (240°)16.1 mph28.8 mphOvercast
8:29 PM57.2 °F51.8 °F82 %29.95 in10.0 miWSW (240°)16.1 mphScattered Clouds
8:53 PM55.9 °F51.1 °F84 %29.96 in10.0 miWSW (250°)12.7 mphPartly Cloudy
9:53 PM54.0 °F46.0 °F75 %29.99 in10.0 miWest (270°)17.3 mph26.5 mphPartly Cloudy
10:53 PM51.1 °F45.0 °F80 %29.99 in10.0 miWest (260°)9.2 mphClear
11:53 PM48.0 °F44.1 °F86 %29.99 in10.0 miWSW (240°)5.8 mphClear
Hourly data recorded from KILM, located miles away from Wilmington, North Carolina







STORIES FROM OUR PARTNERS